SCP
1 1 1 1 1 1 1 1 1 0 0 0 0 0 0 0 0 0 0 0 0 0 0 0 0 0 0 0 0 0 0 0 0 1 0 0 0 0 0 0 0 0 0
2 1 1 1 1 1 1 1 1 1 1 0 0 0 0 0 0 0 0 0 0 1 1 1 0 0 0 1 1 1 1 0 1 1 0 0 0 0 0 0 0 0 0
2 2 1 1 1 1 1 1 1 1 1 1 1 0 0 0 0 0 0 0 0 1 1 1 1 1 1 1 1 1 1 1 1 1 1 0 0 0 0 0 0 0 0
1 1 1 1 1 1 1 1 1 1 1 1 1 1 1 0 0 0 0 0 0 1 1 1 1 1 1 1 1 1 1 1 1 1 1 1 0 0 0 0 0 0 0
1 1 2 2 2 2 1 1 1 1 1 1 1 1 1 1 0 0 0 0 0 1 1 1 1 1 1 1 1 1 1 1 1 1 1 1 1 0 0 0 0 0 0
1 1 2 2 2 2 2 1 1 1 1 1 1 1 1 1 1 1 0 0 0 1 1 1 1 1 1 1 1 1 1 1 1 1 1 1 1 1 1 0 0 0 0
1 1 2 2 2 2 2 1 1 1 1 1 1 1 1 1 1 1 1 1 1 1 1 1 2 2 2 1 1 1 1 1 1 1 1 1 1 1 1 1 0 0 0
1 1 2 2 2 3 2 2 1 1 1 1 1 1 1 1 1 1 1 1 1 1 1 2 2 2 2 2 1 1 1 1 1 1 1 1 1 1 1 1 1 0 0
2 2 2 2 2 2 2 2 1 2 2 2 2 2 1 1 1 1 1 1 1 1 1 1 1 1 1 2 2 1 1 1 1 1 1 1 1 1 1 1 1 1 0
2 2 2 2 2 2 2 2 1 2 2 2 2 2 1 1 1 1 1 1 1 1 1 1 1 1 1 2 2 1 1 1 1 1 1 1 1 1 1 1 1 1 1
2 2 2 2 2 2 2 2 1 1 2 2 2 2 2 1 1 1 1 1 1 1 1 1 1 1 1 2 2 2 1 1 1 1 1 1 1 1 1 1 1 1 1
1 2 2 3 3 3 2 2 1 1 1 1 1 1 1 2 2 2 1 1 1 1 1 1 1 1 1 2 2 2 1 1 1 1 1 1 1 1 1 1 1 1 1
1 2 2 3 3 3 3 2 2 1 1 1 1 1 1 2 2 2 2 2 2 2 2 2 2 2 2 2 2 1 1 1 0 0 0 0 1 1 1 1 1 1 1
2 2 3 3 4 3 2 2 2 2 1 1 1 1 1 2 3 3 3 2 2 2 2 2 2 2 2 2 1 1 1 0 0 0 0 0 0 0 1 1 1 1 1
2 2 3 3 3 3 2 2 2 2 2 1 1 1 2 2 3 3 3 2 2 2 2 2 2 2 2 2 1 1 1 0 0 0 0 0 0 0 0 0 1 1 1
2 2 2 3 3 2 2 2 2 2 2 1 2 2 2 2 3 3 3 2 2 2 2 2 3 3 3 2 1 1 1 1 0 0 0 0 0 0 0 0 0 0 0
2 2 2 2 2 2 2 2 2 2 2 2 2 2 2 3 3 3 3 2 2 2 2 2 3 3 3 2 1 1 1 1 0 0 0 0 0 0 0 0 0 0 0
3 3 3 3 2 2 2 2 2 1 2 2 1 2 2 2 3 3 3 3 2 2 2 2 2 2 2 1 1 1 1 1 1 0 0 0 0 0 0 0 0 0 0
4 4 4 3 2 2 2 2 1 1 2 2 1 1 1 2 2 2 2 2 2 1 1 1 1 1 1 1 1 1 1 1 1 0 0 0 0 0 0 0 0 0 0
4 4 4 4 3 2 2 2 2 2 2 2 2 1 1 1 1 1 1 1 1 1 1 1 1 1 1 1 0 0 0 1 1 1 1 1 1 0 0 0 0 0 0
4 5 5 4 3 3 2 2 2 2 2 2 2 2 1 1 1 1 1 1 1 1 1 1 1 1 1 1 1 0 0 0 1 1 1 1 1 1 1 1 0 0 0
4 5 5 5 4 3 2 1 1 1 2 2 2 2 1 1 1 0 0 0 1 1 1 1 1 1 1 1 1 0 0 1 1 1 1 1 1 1 1 1 0 0 0
4 5 5 4 3 2 1 1 1 1 1 2 2 2 1 1 1 0 0 0 0 0 1 1 1 1 1 1 1 1 1 1 1 1 1 1 1 1 1 1 0 0 0
4 4 3 3 2 2 1 0 0 1 1 2 2 1 1 1 1 1 1 1 1 1 0 0 0 0 0 0 0 0 0 0 0 0 0 0 0 0 0 0 0 0 0
3 3 2 2 2 1 1 0 0 1 1 2 2 2 1 1 1 0 1 1 1 1 0 0 0 0 0 0 0 0 0 0 0 0 0 0 0 0 0 0 0 0 0
2 2 2 2 2 1 1 0 0 1 1 2 2 2 1 1 0 0 1 1 1 0 0 0 0 0 0 0 0 0 0 0 0 0 0 0 0 0 0 0 0 0 0
Wind_Speed
1 1 0 1 1 1 2 2 1 2 2 3 3 3 3 2 2 2 4 8 8 8 9 10 10 10 10 10 9 9 10 10 9 9 9 9 10 10 10 10 9 9 9
1 2 2 2 2 2 1 1 2 2 3 2 3 3 4 3 3 3 3 7 10 9 10 10 10 11 11 11 11 11 11 11 10 10 10 10 10 10 10 11 11 10 10
2 3 3 3 2 2 2 3 3 3 4 4 4 4 4 4 4 4 4 4 6 11 12 11 11 11 12 12 13 13 12 12 11 11 11 11 11 11 11 11 12 11 11
3 4 3 3 3 3 3 3 4 4 3 4 3 4 4 4 6 6 5 5 5 5 11 14 12 12 13 13 14 14 13 13 13 13 13 12 12 12 12 12 12 12 12
4 4 3 3 4 3 3 5 3 3 4 4 4 5 5 5 5 6 6 7 6 6 5 10 14 13 14 14 14 14 14 14 14 14 14 14 14 14 13 13 13 13 12
4 4 4 3 4 3 4 4 4 4 4 4 6 4 5 5 6 6 7 7 6 7 7 6 7 10 14 13 13 13 13 13 14 15 16 16 16 15 14 14 14 14 14
4 4 4 3 4 4 4 5 5 6 5 4 5 5 6 8 7 6 6 6 6 6 6 5 5 5 6 12 12 12 12 13 13 13 14 15 15 15 14 15 14 15 15
4 4 4 4 4 4 5 5 5 4 4 3 3 4 4 5 5 6 5 5 5 4 5 5 5 4 5 4 6 10 11 11 11 11 10 11 12 12 13 13 13 13 13
4 4 4 4 4 5 4 5 5 5 5 3 4 4 4 3 2 3 4 3 3 3 4 3 4 4 5 4 4 7 8 8 8 8 8 8 8 10 12 13 13 14 14
4 4 4 5 5 5 5 6 5 5 6 5 4 5 6 4 4 3 3 2 2 2 3 3 3 3 3 3 2 0 4 5 6 7 7 8 8 8 10 12 13 12 12
4 4 4 4 4 4 5 5 4 5 4 5 4 3 4 5 6 5 3 2 2 2 2 2 3 2 2 2 2 1 4 4 4 4 5 6 7 7 8 9 10 11 11
2 3 4 3 4 4 4 4 4 4 4 4 4 3 4 4 4 4 4 4 2 1 1 1 2 2 2 2 0 5 5 3 2 2 2 3 4 5 6 7 8 8 8
2 2 3 3 3 3 3 3 3 3 3 4 4 4 4 4 3 3 4 4 3 2 1 1 1 2 1 1 2 5 5 4 3 2 1 0 0 1 2 3 3 4 4
2 2 2 2 2 3 3 2 2 2 2 3 3 3 3 3 3 3 3 3 3 3 1 1 0 1 2 1 4 3 4 6 5 4 4 3 3 2 2 1 1 1 1
2 2 2 2 2 2 2 2 1 1 1 1 1 2 3 2 3 3 3 3 3 3 1 0 1 2 2 2 3 2 3 8 8 7 6 5 5 4 4 3 3 2 2
2 2 2 2 2 2 2 2 1 1 1 1 1 1 2 2 1 2 2 2 2 3 1 1 1 2 2 2 5 4 5 8 9 8 7 7 7 6 5 5 4 4 3
2 2 2 2 2 2 2 2 2 2 2 2 1 1 1 2 1 1 1 1 1 1 1 0 1 3 4 3 4 4 4 4 6 10 9 8 8 8 7 6 6 5 5
1 2 2 2 2 2 2 2 2 3 3 3 3 3 2 2 2 2 1 1 0 0 1 1 2 2 3 3 4 3 4 4 6 11 11 11 10 9 8 8 7 6 7
2 2 2 3 3 3 3 3 4 4 5 4 4 4 4 3 3 3 2 2 1 1 1 2 2 2 3 3 4 4 5 4 5 7 9 10 10 10 10 10 10 9 9
3 3 3 4 4 4 5 5 5 5 6 6 6 5 5 5 5 4 3 3 3 2 3 3 3 3 3 2 2 3 4 4 4 4 6 6 8 9 11 11 11 11 10
4 4 4 5 5 5 5 5 5 6 6 7 7 7 9 10 11 8 6 5 4 3 3 4 4 3 3 2 2 2 3 3 4 3 3 3 4 4 6 8 10 10 10
5 5 5 6 6 6 8 8 6 7 7 7 7 7 8 9 10 11 12 11 9 5 4 4 4 4 4 3 2 2 2 2 2 2 2 3 3 4 4 6 9 9 8
5 5 6 7 8 8 8 8 8 6 7 7 7 6 6 7 7 7 8 8 10 11 8 4 5 4 4 3 2 2 2 2 3 2 1 3 3 3 4 7 8 7 7
5 6 6 7 7 8 7 6 5 7 8 8 7 7 7 7 7 6 7 9 9 9 8 7 7 6 6 4 3 3 3 3 3 2 1 2 2 3 3 4 7 6 5
6 6 6 6 6 7 6 5 3 6 7 8 8 8 7 8 8 6 6 8 8 8 10 10 9 7 7 6 4 1 1 1 2 3 2 1 1 1 2 3 6 6 5
6 6 6 6 6 6 6 5 4 4 6 6 6 8 11 9 8 7 6 7 7 7 6 7 6 5 5 6 4 3 3 2 2 2 3 2 1 0 1 2 2 3 3
Wind_Direction
204 179 246 279 243 178 180 205 229 189 208 206 212 210 227 223 213 210 146 167 191 203 204 205 207 206 205 204 207 208 207 205 205 205 207 209 208 207 206 206 207 208 208
233 230 224 244 252 244 252 246 227 225 228 226 227 224 235 226 210 227 210 175 191 204 210 213 214 214 213 210 211 213 214 215 214 212 213 215 216 216 215 214 214 215 215
244 247 247 240 247 242 230 239 247 244 234 227 224 229 233 237 234 229 237 226 196 197 206 214 219 219 219 219 218 218 219 220 220 219 217 219 220 220 221 222 221 220 219
258 259 255 251 253 253 248 241 246 252 249 246 237 238 238 227 232 231 230 227 232 216 198 207 219 222 223 225 226 225 222 222 224 225 223 222 223 223 224 226 226 224 222
263 261 267 263 255 249 250 257 232 253 256 259 250 233 239 237 235 234 236 236 230 232 227 191 205 219 226 230 232 232 229 226 224 224 225 226 226 225 225 227 227 226 225
262 268 262 260 261 256 249 251 258 249 259 263 269 266 252 243 237 232 236 234 231 230 232 227 211 211 217 226 232 235 236 233 229 228 228 230 230 228 227 228 228 227 227
261 259 276 270 265 262 263 254 251 246 245 251 262 259 245 236 234 236 237 243 237 234 237 235 240 240 207 208 223 233 234 236 233 231 230 230 231 230 228 228 230 231 231
266 254 258 268 263 260 260 260 251 262 253 232 250 264 256 231 219 226 223 226 243 242 238 233 232 235 254 223 200 213 228 235 236 234 234 233 231 230 227 226 228 231 232
268 275 274 271 275 269 263 262 255 254 259 250 236 253 268 259 249 210 213 226 233 249 257 250 239 241 242 244 234 200 210 220 229 234 233 230 229 227 226 227 230 232 232
266 263 263 266 266 269 272 264 252 255 254 254 236 240 261 292 280 254 213 205 218 245 270 276 261 239 241 240 223 207 183 203 219 234 240 239 236 234 232 230 231 233 233
265 268 269 270 269 271 275 278 277 260 255 257 254 248 248 249 249 262 265 265 241 243 248 266 283 284 272 250 233 171 154 181 203 225 244 250 246 241 236 234 235 234 233
267 276 275 276 274 275 272 266 266 257 262 263 262 255 251 252 251 248 256 262 264 267 272 294 287 280 279 267 218 84 107 124 146 195 238 255 256 252 244 240 238 237 237
288 294 293 286 282 278 274 268 254 268 269 261 255 253 252 257 267 263 260 269 277 272 258 259 276 282 290 294 82 86 93 98 98 94 98 160 248 277 260 242 244 248 243
309 322 306 301 306 302 293 283 275 268 268 266 261 256 254 252 257 252 256 261 262 257 229 265 340 12 13 37 68 73 86 88 86 80 77 75 71 59 45 53 72 26 305
321 343 341 340 333 329 322 304 322 322 317 293 273 249 254 250 254 257 256 251 252 262 261 337 41 42 41 61 69 69 72 77 78 75 74 74 74 72 64 59 61 62 57
0 353 354 354 350 352 343 332 351 34 23 11 343 319 286 279 263 261 263 266 256 255 270 13 35 43 48 64 81 75 77 89 76 73 72 72 73 71 67 61 61 60 63
16 4 4 4 4 10 14 24 28 47 46 36 7 352 345 337 324 290 265 256 253 242 223 250 59 75 69 65 70 72 80 79 78 73 73 72 68 66 64 63 61 60 57
34 28 21 20 21 29 32 41 41 47 51 48 31 20 14 21 9 340 356 8 55 204 187 138 95 80 73 76 76 72 72 74 76 78 75 70 67 65 64 64 63 61 61
43 40 44 39 36 36 41 51 52 53 52 49 42 36 30 27 20 25 22 33 39 76 91 111 99 75 70 67 77 77 74 66 77 88 85 79 73 71 68 66 62 60 60
65 54 53 52 51 52 56 60 60 59 56 51 46 44 39 39 35 37 47 45 48 72 92 102 99 87 84 80 81 83 82 68 60 62 64 74 86 86 78 71 67 64 63
81 72 68 67 63 63 52 55 70 68 63 60 58 57 56 54 47 40 43 45 49 65 91 98 99 96 86 78 70 76 87 88 74 49 62 68 82 78 84 82 71 63 64
84 80 74 72 67 61 50 43 50 71 67 66 64 64 70 64 66 64 60 54 46 49 58 76 86 83 74 72 72 88 95 94 82 53 39 65 57 65 67 69 67 66 66
94 87 82 80 77 66 56 56 53 73 73 68 65 61 61 63 58 71 79 80 65 52 43 48 76 76 83 72 73 91 66 44 56 61 32 65 62 68 76 79 79 72 68
95 90 85 84 84 72 54 56 69 83 77 71 65 66 69 63 52 50 72 72 69 60 51 56 65 66 69 61 56 66 86 103 104 85 29 47 63 73 78 93 99 85 81
102 96 90 87 86 78 49 34 36 95 87 78 69 61 61 70 41 28 74 79 77 78 80 74 68 73 70 55 22 52 84 101 102 96 55 27 76 98 113 112 121 128 111
109 104 93 88 86 82 54 26 356 98 97 96 90 84 67 56 41 26 66 78 79 75 77 89 90 94 89 83 54 21 10 20 47 78 57 342 24 329 116 103 98 131 137